Погода Обсерватория Федорова

Погода Обсерватория Федорова : погода сейчас, прогноз погоды и архив. Всё, что Вы хотите узнать о погоде Обсерватория Федорова!

Хотите узнать прогноз погоды Обсерватория Федорова? Тогда Вам сюда: Погода Обсерватория Федорова

Поиск расширенной информации на нашем сайте:

Другие новости

Новости СМИ2

Главная страница сайта

Новости сайта

03.07.2017

Напоминаем, что на нашем специализированном сайте Метеоцентр.Азия вы можете получить высокодетализированные автоматические прогнозы погоды по пунктам России, СНГ и мира в авиационном формате (включающие направление и скорость ветра, видимость, явления погоды, количество и форму облачности, нижнюю и верхнюю границу облачности).

Рекомендуем: Здесь Pro Evolution Soccer 2012 cкачать через торрент без регистрации бесплатно без вирусов и смс

Погода Обсерватория Федорова - сегодня

Время (UTC), дата Ветер
(°,м/с) 
Видим.   Явления Облачность Т
(°С)
Тd
(°С)
f(%) Тe
(°С)
Pmin
(гПа)
dP
(гПа)
Po
(мм)
O2
(г/м3)
Тmin Tmax R s Состояние
почвы
12 15.09.17 080 (В) 0500 м  туман [диам. гололёда 4 мм]  ?/?  
-1.8 -1.8 100 -6  1019.1  0.1  763  310    -0.8       
18 15.09.17 070 (В) 0500 м  туман [диам. гололёда 8 мм]  10/10 300 м 
[Sc]
-2.3 -2.3 100 -6  1019.1  763  310           
21 15.09.17 070 (В) 4000 м  дымка{туман} [диам. гололёда 8 мм]  10/10 200 м 
[St]
-2.3 -2.5 99 -6  1019.4  0.3  763  310           
15 16.09.17 150 (ЮВ) 20000 м  [диам. гололёда 8 мм]  10/10 300 м 
[Sc]
-2.8 -3 99 -5  1019.8  -0.2  764  311           
18 16.09.17 120 (ЮВ) 20000 м  [диам. гололёда 8 мм]  4/3 300 м верхняя 
[Sc|Ci fib]
-3.8 -4.1 98 -3  1019.5  -0.3  763  312           
03 18.09.17 260 (З) 0500 м  переохл. туман [диам. сложн. отлож. 9 мм]  ?/?  
-2.3 -2.3 100 -7  1015.6  -0.4  760  309           
15 18.09.17 270 (З) 7{10}  20000 м    10/8 300 м средняя 
[Sc|Ac und]
-1 -1.1 99 -5  1016.4  0.3  761  308           
18 18.09.17 260 (З) 0500 м  туман  ?/?  
-0.9 -0.9 100 -4  1016.5  761  308           
21 18.09.17 270 (З) 10 км  {ливн. осадки, туман}  10/10 300 м 
[Sc]
-1.3 -1.3 100 -5  1015.9  -0.5  761  308           
00 19.09.17 270 (З) 8-11  20000 м  в посл. час ливневой снег{туман}  10/8 300 м средняя 
[Sc|Ac und]
-1.8 -2.1 98 -6  1014.7  -1.2  760  308  -2    0.0  сухой снег
50-90% 
03 19.09.17 270 (З) 11-13{13}  4000 м  слаб. ливневой снег  10/10 200 м кучево-дожд. 
[Cb cap]
-1.6 -1.8 99 -7  1012.7  -2  758  308  -2.2         
06 19.09.17 260 (З) 13-16{16}  10 км  в посл. час ливневой снег  10/10 300 м кучево-дожд. 
[Cb cap]
-1.2 -1.3 99 -7  1010.1  -2.6  756  306           
09 19.09.17 260 (З) 14-18  0500 м  слаб. ливневой снег  10/10 300 м кучево-дожд. 
[Cb cap]
-1.1 -1.2 99 -7  1006.7  -3.3  754  305           
12 19.09.17 250 (З) 15-20{21}  0500 м  слаб. снег{ливн. осадки}  10/10 200 м 
[Frnb|Ns]
-0.9 -0.9 100 -7  1002.5  -4.2  751  304    -0.9  0.2     
18 19.09.17 260 (З) 16-20{22}  2000 м  метель{снег}  10/10 300 м 
[Sc]
-0.1 -0.1 100 -6  994.8  -4.2  745  300           
21 19.09.17 250 (З) 13-16{20}  0200 м  сильная метель{ливн. осадки}  ?/?  
-0.3 -0.3 100 -6  989.6  -5.1  741  299           
00 20.09.17 300 (СЗ) 14-18{22}  0500 м  слаб. ливневой снег  10/10 210 м кучево-дожд. 
[Cb cap]
-1.2 -1.2 100 -7  986.2  -3.3  738  299  -1.2    0.6  равномерный
мокрый или
старый снег
100% 
03 20.09.17 290 (З) 15-20{22}  4000 м  метель{ливн. осадки}  9/9 300 м 
[Cu Sc]
-2.4 -4 89 -9  988.5  2.2  740  301  -2.9         
06 20.09.17 300 (СЗ) 16-20{22}  2000 м  метель{ливн. осадки}  9/9 300 м кучево-дожд. 
[Cb cap]
-2.1 -3.7 89 -9  988.3  -0.2  740  301           
09 20.09.17 310 (СЗ) 11-15{20}  20000 м    9/9 300 м 
[Sc]
-2.4 -5.2 81 -8  992.1  3.8  743  303           
12 20.09.17 320 (СЗ) 9-13{17}  20000 м    9/8 300 м верхняя 
[Sc|Ci fib]
-2.8 -5.9 79 -8  995.5  3.4  745  304    -1.2  0.5     
15 20.09.17 310 (СЗ) 11-15{18}  4000 м  метель  8/6 300 м верхняя 
[Sc|Ci fib]
-2.9 -5.9 80 -9  997.3  1.8  747  305           
18 20.09.17 310 (СЗ) 10-13{16}  10 км  позёмок  9/9 300 м 
[Sc]
-3 -6.4 77 -9  998.3  748  305           
21 20.09.17 310 (СЗ) 11-14{14}  10 км  позёмок  9/9 300 м 
[Sc]
-3.4 -7.3 74 -9  998.4  748  306           
00 21.09.17 300 (СЗ) 8-11{14}  20000 м    10/5 300 м средняя, верхняя 
[Sc|Ac As|Cc]
-4.4 -8.9 71 -10  999.1  0.8  748  307  -4.5      равномерный
мокрый или
старый снег
100% 
Время (UTC), дата Ветер
(°,м/с) 
Видим.   Явления Облачность Т
(°С)
Тd
(°С)
f(%) Тe
(°С)
Pmin
(гПа)
dP
(гПа)
Po
(мм)
O2
(г/м3)
Тmin Tmax R s Состояние
почвы

Для получения пояснительной информации подведите курсор к названию столбца.

ПОГОДА Обсерватория Федорова - архив

Всё, что Вы хотите узнать о погоде Обсерватория Федорова - удобно и подробно!

Выберите нужную дату (начиная с 1 января 2015* года) и нажмите кнопку "Найти".
Будут отображены архивные сводки погоды по пункту Обсерватория Федорова, начиная с указанной даты.


Отображать данные в формате CSV (для использования в таблицах Excel)


Внимание! Наш архив погоды предназначен исключительно для личного некоммерческого использования в познавательных целях. Если Вам необходимы официальные справки о состоянии погоды (для производственных, юридических, коммерческих и т.п. целей), обращайтесь в органы Росгидромета.

*Примечание: данная дата относится к архиву по метеостанциям СССР (Россия, СНГ, Балтия).
Архив по метеостанциям Зарубежной Европы и Азии (кроме Китая) хранится 10 дней, по другим регионам земного шара (Китай, Африка, Америка, Австралия, Океания) - 1 день.

Обсерватория Федорова - район местоположения метеостанции


Название, широта, долгота, высота метеостанции:
Обсерватория Федорова (Мыс Челюскин) 77.7°ш. 104.3°д. 15 м над ур. моря [Российская Федерация]

Дополнительная информация

В oтличие oт бoльшинства пoгoдных сайтoв мы публикуем пoдрoбную метеoинфoрмацию в детальнoм прoфессиoнальнoм фoрмате.

Характеристики температуры и влажнoсти вoздуха измеряются на высoте 2 м в тени вдали oт зданий и деревьев.
Скoрoсть ветра измеряется на высoте 10 м (на урoвне рoста челoвека скoрoсть ветра ниже в 1.5-2 раза). Если метеoстанция нахoдится в гoрoде или в лесу, тo скoрoсть ветра занижена на 2-4 м/с пo сравнению с oткрытым местoм. Скoрoсть ветра над акватoриями крупных рек и oзёр, а также на вершинах хoлмoв на 2-5 м/с выше, чем в oбычных услoвиях.
Атмoсфернoе давление в разных тoчках местнoсти мoжет значительнo oтличаться oт давления на метеoстанции, в зависимoсти oт услoвий рельефа (при пoдъёме на 10 м давление пoнижается примернo на 1 мм рт.ст.).